VOI1080 MMGL-MMMY

Flight info

Callsign VOI1080
Flight time 1h 3m
Altitude 37000
Route OTOKI1B OTOKI J42 ZCL UT5 SLW SLW1B
Aircraft A320/M-SDE3FGHIRWY/LB1

Departure

Time 2026-04-22 02:18
Airport Guadalajara International Airport (MMGL)

Arrival

Time 2026-04-22 03:21
Airport Monterrey International Airport (MMMY)
Time Latitude Longitude Altitude Speed Heading
2026-04-22 01:40 20.52391 -103.29942 5018 ft 0 kts 19°
2026-04-22 02:05 20.52386 -103.29944 5016 ft 4 kts 17°
2026-04-22 02:05 20.52359 -103.29949 5019 ft 4 kts 354°
2026-04-22 02:05 20.52334 -103.29941 5013 ft 4 kts 323°
2026-04-22 02:06 20.52316 -103.29921 5019 ft 4 kts 296°
2026-04-22 02:06 20.52311 -103.29909 5019 ft 0 kts 289°
2026-04-22 02:09 20.52312 -103.29912 5019 ft 2 kts 289°
2026-04-22 02:10 20.52318 -103.29932 5018 ft 4 kts 289°
2026-04-22 02:10 20.52330 -103.29968 5015 ft 6 kts 289°
2026-04-22 02:10 20.52335 -103.30020 5018 ft 7 kts 233°
2026-04-22 02:10 20.52282 -103.30041 5019 ft 9 kts 198°
2026-04-22 02:11 20.52221 -103.30063 5019 ft 10 kts 198°
2026-04-22 02:11 20.52152 -103.30084 5018 ft 11 kts 179°
2026-04-22 02:11 20.52108 -103.30025 5019 ft 11 kts 109°
2026-04-22 02:11 20.52080 -103.29940 5019 ft 13 kts 109°
2026-04-22 02:12 20.52037 -103.29853 5019 ft 13 kts 126°
2026-04-22 02:12 20.51973 -103.29762 5019 ft 18 kts 127°
2026-04-22 02:12 20.51892 -103.29646 5014 ft 20 kts 126°
2026-04-22 02:12 20.51807 -103.29522 5017 ft 21 kts 127°
2026-04-22 02:13 20.51718 -103.29394 5020 ft 22 kts 125°
2026-04-22 02:13 20.51645 -103.29284 5020 ft 16 kts 126°
2026-04-22 02:13 20.51581 -103.29208 5020 ft 11 kts 161°
2026-04-22 02:13 20.51512 -103.29224 5020 ft 11 kts 224°
2026-04-22 02:14 20.51496 -103.29234 5020 ft 0 kts 205°
2026-04-22 02:16 20.51489 -103.29238 5020 ft 3 kts 205°
2026-04-22 02:16 20.51451 -103.29257 5018 ft 9 kts 205°
2026-04-22 02:17 20.51425 -103.29311 5020 ft 10 kts 290°
2026-04-22 02:17 20.51498 -103.29482 5022 ft 56 kts 294°
2026-04-22 02:17 20.51742 -103.30069 5020 ft 116 kts 294°
2026-04-22 02:17 20.52147 -103.31026 5025 ft 163 kts 292°
2026-04-22 02:18 20.52617 -103.32201 5629 ft 170 kts 289°
2026-04-22 02:18 20.53099 -103.33358 6385 ft 170 kts 292°
2026-04-22 02:18 20.53584 -103.34501 6908 ft 176 kts 292°
2026-04-22 02:18 20.54111 -103.35751 7056 ft 194 kts 292°
2026-04-22 02:19 20.54695 -103.37131 7207 ft 214 kts 292°
2026-04-22 02:19 20.55341 -103.38648 7481 ft 233 kts 293°
2026-04-22 02:19 20.56021 -103.40249 8111 ft 238 kts 293°
2026-04-22 02:19 20.56711 -103.41877 8793 ft 241 kts 294°
2026-04-22 02:20 20.57393 -103.43504 9512 ft 244 kts 294°
2026-04-22 02:20 20.58087 -103.45178 10225 ft 246 kts 294°
2026-04-22 02:20 20.58787 -103.46854 10784 ft 253 kts 296°
2026-04-22 02:20 20.59934 -103.48367 11026 ft 275 kts 326°
2026-04-22 02:21 20.61788 -103.49014 11252 ft 298 kts 357°
2026-04-22 02:21 20.63880 -103.48517 11412 ft 323 kts 26°
2026-04-22 02:21 20.65617 -103.46876 11557 ft 347 kts 55°
2026-04-22 02:21 20.66659 -103.44492 11938 ft 358 kts 68°
2026-04-22 02:22 20.67608 -103.42043 12509 ft 362 kts 66°
2026-04-22 02:22 20.68629 -103.39569 13160 ft 363 kts 65°
2026-04-22 02:22 20.69669 -103.37124 13770 ft 365 kts 65°
2026-04-22 02:22 20.70915 -103.34750 14299 ft 367 kts 53°
2026-04-22 02:23 20.72634 -103.32698 14785 ft 370 kts 41°
2026-04-22 02:23 20.74701 -103.31091 15274 ft 372 kts 29°
2026-04-22 02:23 20.77081 -103.29960 15764 ft 375 kts 18°
2026-04-22 02:23 20.79579 -103.29065 16240 ft 378 kts 17°
2026-04-22 02:24 20.82066 -103.28194 16731 ft 381 kts 17°
2026-04-22 02:24 20.84581 -103.27324 17214 ft 383 kts 16°
2026-04-22 02:24 20.87140 -103.26450 17711 ft 386 kts 16°
2026-04-22 02:24 20.89719 -103.25561 18210 ft 389 kts 16°
2026-04-22 02:25 20.92306 -103.24657 18651 ft 392 kts 17°
2026-04-22 02:25 20.94875 -103.23747 19091 ft 394 kts 17°
2026-04-22 02:25 20.97495 -103.22807 19555 ft 396 kts 17°
2026-04-22 02:25 21.00133 -103.21858 19959 ft 400 kts 17°
2026-04-22 02:26 21.02754 -103.20924 20383 ft 403 kts 16°
2026-04-22 02:26 21.05442 -103.19977 20816 ft 406 kts 16°
2026-04-22 02:26 21.08112 -103.19047 21237 ft 409 kts 15°
2026-04-22 02:26 21.10840 -103.18101 21672 ft 412 kts 15°
2026-04-22 02:27 21.13587 -103.17143 22113 ft 415 kts 15°
2026-04-22 02:27 21.16317 -103.16183 22531 ft 417 kts 15°
2026-04-22 02:27 21.19098 -103.15202 22949 ft 420 kts 15°
2026-04-22 02:27 21.21894 -103.14214 23362 ft 423 kts 15°
2026-04-22 02:28 21.24677 -103.13227 23737 ft 426 kts 15°
2026-04-22 02:28 21.27509 -103.12218 24085 ft 429 kts 15°
2026-04-22 02:28 21.30325 -103.11217 24435 ft 431 kts 15°
2026-04-22 02:28 21.33207 -103.10210 24790 ft 432 kts 13°
2026-04-22 02:29 21.36107 -103.09327 25124 ft 434 kts 11°
2026-04-22 02:29 21.39009 -103.08556 25467 ft 435 kts
2026-04-22 02:29 21.41972 -103.07828 25814 ft 437 kts
2026-04-22 02:29 21.44962 -103.07114 26156 ft 440 kts
2026-04-22 02:30 21.47933 -103.06395 26496 ft 442 kts
2026-04-22 02:30 21.50944 -103.05642 26829 ft 445 kts
2026-04-22 02:30 21.53969 -103.04866 27167 ft 448 kts
2026-04-22 02:30 21.57014 -103.04070 27502 ft 450 kts
2026-04-22 02:31 21.60069 -103.03260 27842 ft 453 kts
2026-04-22 02:31 21.63108 -103.02451 28175 ft 455 kts
2026-04-22 02:31 21.66211 -103.01635 28519 ft 458 kts
2026-04-22 02:31 21.69289 -103.00829 28841 ft 460 kts
2026-04-22 02:32 21.72422 -103.00010 29171 ft 463 kts
2026-04-22 02:32 21.75570 -102.99186 29481 ft 465 kts
2026-04-22 02:32 21.78729 -102.98360 29901 ft 465 kts
2026-04-22 02:32 21.81841 -102.97545 30341 ft 464 kts
2026-04-22 02:33 21.84993 -102.96718 30737 ft 464 kts
2026-04-22 02:33 21.88104 -102.95900 31128 ft 463 kts
2026-04-22 02:33 21.91246 -102.95073 31518 ft 463 kts
2026-04-22 02:33 21.94378 -102.94249 31917 ft 462 kts
2026-04-22 02:34 21.97512 -102.93426 32326 ft 461 kts
2026-04-22 02:34 22.00608 -102.92618 32704 ft 461 kts
2026-04-22 02:34 22.03734 -102.91806 33096 ft 460 kts
2026-04-22 02:34 22.06852 -102.90994 33462 ft 461 kts
2026-04-22 02:35 22.09942 -102.90188 33855 ft 460 kts
2026-04-22 02:35 22.13070 -102.89367 34233 ft 459 kts
2026-04-22 02:35 22.16158 -102.88553 34546 ft 460 kts
2026-04-22 02:35 22.19276 -102.87728 34837 ft 460 kts
2026-04-22 02:36 22.22413 -102.86900 35120 ft 461 kts
2026-04-22 02:36 22.25493 -102.86089 35379 ft 461 kts
2026-04-22 02:36 22.28629 -102.85263 35659 ft 462 kts
2026-04-22 02:36 22.31733 -102.84444 35914 ft 463 kts
2026-04-22 02:37 22.34874 -102.83614 36174 ft 463 kts
2026-04-22 02:37 22.38019 -102.82782 36442 ft 464 kts
2026-04-22 02:37 22.41134 -102.81959 36710 ft 464 kts
2026-04-22 02:37 22.44288 -102.81125 36954 ft 465 kts
2026-04-22 02:38 22.47442 -102.80292 37033 ft 468 kts
2026-04-22 02:38 22.53840 -102.78604 37047 ft 476 kts
2026-04-22 02:39 22.60274 -102.76892 37095 ft 477 kts
2026-04-22 02:39 22.66707 -102.75179 37164 ft 477 kts
2026-04-22 02:40 22.73153 -102.73474 37224 ft 477 kts
2026-04-22 02:40 22.79630 -102.71754 37300 ft 478 kts
2026-04-22 02:41 22.86071 -102.70031 37311 ft 479 kts 10°
2026-04-22 02:41 22.92236 -102.67079 37311 ft 492 kts 26°
2026-04-22 02:42 22.98072 -102.63271 37309 ft 492 kts 26°
2026-04-22 02:42 23.03969 -102.59455 37236 ft 492 kts 26°
2026-04-22 02:43 23.09840 -102.55652 37158 ft 493 kts 26°
2026-04-22 02:43 23.15711 -102.51840 37077 ft 493 kts 26°
2026-04-22 02:44 23.21611 -102.47993 37008 ft 493 kts 26°
2026-04-22 02:44 23.27488 -102.44155 37007 ft 493 kts 26°
2026-04-22 02:45 23.32401 -102.40950 37004 ft 493 kts 25°
2026-04-22 02:45 23.38284 -102.37117 37001 ft 494 kts 25°
2026-04-22 02:46 23.44161 -102.33274 37003 ft 494 kts 26°
2026-04-22 02:46 23.50062 -102.29411 37003 ft 494 kts 25°
2026-04-22 02:47 23.55957 -102.25562 37005 ft 494 kts 25°
2026-04-22 02:47 23.61823 -102.21718 37008 ft 494 kts 25°
2026-04-22 02:48 23.67734 -102.17828 37009 ft 494 kts 25°
2026-04-22 02:48 23.73602 -102.13971 37007 ft 493 kts 25°
2026-04-22 02:49 23.79466 -102.10123 37009 ft 493 kts 25°
2026-04-22 02:49 23.85372 -102.06231 37011 ft 493 kts 25°
2026-04-22 02:50 23.91226 -102.02363 37013 ft 493 kts 25°
2026-04-22 02:50 23.97069 -101.98503 37011 ft 493 kts 25°
2026-04-22 02:51 24.02955 -101.94623 37015 ft 493 kts 25°
2026-04-22 02:51 24.08804 -101.90763 37017 ft 493 kts 25°
2026-04-22 02:52 24.14693 -101.86872 37026 ft 493 kts 25°
2026-04-22 02:52 24.20552 -101.82993 37032 ft 493 kts 25°
2026-04-22 02:53 24.26402 -101.79106 37027 ft 493 kts 25°
2026-04-22 02:53 24.32294 -101.75189 37034 ft 493 kts 25°
2026-04-22 02:54 24.38160 -101.71288 37044 ft 493 kts 25°
2026-04-22 02:54 24.44011 -101.67407 37045 ft 493 kts 25°
2026-04-22 02:55 24.49875 -101.63513 37050 ft 494 kts 25°
2026-04-22 02:55 24.55730 -101.59607 37055 ft 494 kts 25°
2026-04-22 02:56 24.61621 -101.55665 37056 ft 494 kts 25°
2026-04-22 02:56 24.67505 -101.51730 37057 ft 494 kts 25°
2026-04-22 02:57 24.73357 -101.47805 37061 ft 495 kts 25°
2026-04-22 02:57 24.79227 -101.43881 37069 ft 495 kts 25°
2026-04-22 02:58 24.85148 -101.39921 37077 ft 495 kts 25°
2026-04-22 02:58 24.91024 -101.35983 37082 ft 496 kts 25°
2026-04-22 02:59 24.96882 -101.32043 37087 ft 496 kts 25°
2026-04-22 02:59 25.02755 -101.28086 37095 ft 496 kts 25°
2026-04-22 03:00 25.08637 -101.24116 36973 ft 502 kts 25°
2026-04-22 03:00 25.11678 -101.22068 36708 ft 511 kts 25°
2026-04-22 03:00 25.14730 -101.20009 35970 ft 515 kts 25°
2026-04-22 03:00 25.17757 -101.17956 35551 ft 504 kts 25°
2026-04-22 03:01 25.20701 -101.15956 34633 ft 500 kts 25°
2026-04-22 03:01 25.23666 -101.13949 33703 ft 495 kts 24°
2026-04-22 03:01 25.26607 -101.11961 32660 ft 492 kts 25°
2026-04-22 03:01 25.29479 -101.10016 32206 ft 476 kts 25°
2026-04-22 03:02 25.32244 -101.08141 31647 ft 465 kts 25°
2026-04-22 03:02 25.35000 -101.06270 31177 ft 460 kts 25°
2026-04-22 03:02 25.37715 -101.04427 30617 ft 461 kts 25°
2026-04-22 03:02 25.40464 -101.02562 30019 ft 460 kts 25°
2026-04-22 03:03 25.43194 -101.00713 29434 ft 458 kts 25°
2026-04-22 03:03 25.45883 -100.98894 28892 ft 455 kts 25°
2026-04-22 03:03 25.48561 -100.97006 28330 ft 456 kts 31°
2026-04-22 03:03 25.50904 -100.94644 27770 ft 462 kts 44°
2026-04-22 03:04 25.52774 -100.91723 27230 ft 466 kts 58°
2026-04-22 03:04 25.54031 -100.88419 26758 ft 467 kts 72°
2026-04-22 03:04 25.54640 -100.84897 26257 ft 465 kts 85°
2026-04-22 03:04 25.54708 -100.81368 25886 ft 460 kts 90°
2026-04-22 03:05 25.54726 -100.77846 25260 ft 452 kts 89°
2026-04-22 03:05 25.54749 -100.74387 24732 ft 442 kts 89°
2026-04-22 03:05 25.54935 -100.71031 24485 ft 429 kts 78°
2026-04-22 03:05 25.55768 -100.67927 24075 ft 423 kts 62°
2026-04-22 03:06 25.57290 -100.65157 23553 ft 418 kts 50°
2026-04-22 03:06 25.59032 -100.62551 23028 ft 418 kts 49°
2026-04-22 03:06 25.60744 -100.60001 22541 ft 415 kts 50°
2026-04-22 03:06 25.62398 -100.57539 22045 ft 414 kts 50°
2026-04-22 03:07 25.64112 -100.54981 21514 ft 412 kts 50°
2026-04-22 03:07 25.65819 -100.52427 20999 ft 412 kts 50°
2026-04-22 03:07 25.67520 -100.49873 20539 ft 410 kts 51°
2026-04-22 03:07 25.69200 -100.47343 20002 ft 409 kts 51°
2026-04-22 03:08 25.70878 -100.44814 19674 ft 403 kts 51°
2026-04-22 03:08 25.72521 -100.42335 19236 ft 400 kts 51°
2026-04-22 03:08 25.74157 -100.39870 18775 ft 397 kts 51°
2026-04-22 03:08 25.75792 -100.37412 17983 ft 392 kts 51°
2026-04-22 03:09 25.77406 -100.34986 17212 ft 386 kts 51°
2026-04-22 03:09 25.78956 -100.32647 16679 ft 372 kts 51°
2026-04-22 03:09 25.80475 -100.30353 16191 ft 361 kts 50°
2026-04-22 03:09 25.81937 -100.28140 15707 ft 352 kts 50°
2026-04-22 03:10 25.83374 -100.25968 15248 ft 352 kts 50°
2026-04-22 03:10 25.84840 -100.23758 14760 ft 355 kts 50°
2026-04-22 03:10 25.86314 -100.21533 14282 ft 356 kts 50°
2026-04-22 03:10 25.87763 -100.19341 13783 ft 353 kts 50°
2026-04-22 03:11 25.89208 -100.17148 13289 ft 349 kts 50°
2026-04-22 03:11 25.90619 -100.15004 12977 ft 340 kts 50°
2026-04-22 03:11 25.91992 -100.12919 12845 ft 325 kts 50°
2026-04-22 03:11 25.93346 -100.11026 12712 ft 307 kts 38°
2026-04-22 03:12 25.95089 -100.09852 12587 ft 283 kts 12°
2026-04-22 03:12 25.98852 -100.10132 11095 ft 281 kts 327°
2026-04-22 03:12 26.00346 -100.11534 10355 ft 282 kts 306°
2026-04-22 03:13 26.01221 -100.13450 9672 ft 283 kts 284°
2026-04-22 03:13 26.01346 -100.15637 8924 ft 287 kts 260°
2026-04-22 03:13 26.00801 -100.17779 8316 ft 285 kts 252°
2026-04-22 03:13 26.00212 -100.19794 8125 ft 269 kts 252°
2026-04-22 03:14 25.99651 -100.21709 8020 ft 251 kts 252°
2026-04-22 03:14 25.99126 -100.23510 7940 ft 241 kts 251°
2026-04-22 03:14 25.98550 -100.25234 7837 ft 238 kts 241°
2026-04-22 03:14 25.97603 -100.26704 7712 ft 229 kts 224°
2026-04-22 03:15 25.96364 -100.27791 7350 ft 228 kts 209°
2026-04-22 03:15 25.94999 -100.28701 6808 ft 234 kts 209°
2026-04-22 03:15 25.93593 -100.29639 6293 ft 237 kts 208°
2026-04-22 03:15 25.92166 -100.30592 5821 ft 237 kts 208°
2026-04-22 03:16 25.90739 -100.31241 5737 ft 213 kts 182°
2026-04-22 03:16 25.89341 -100.30963 5624 ft 204 kts 149°
2026-04-22 03:16 25.88346 -100.29860 5298 ft 205 kts 121°
2026-04-22 03:16 25.87604 -100.28499 4981 ft 206 kts 122°
2026-04-22 03:17 25.86866 -100.27146 4653 ft 208 kts 122°
2026-04-22 03:17 25.86109 -100.25763 4328 ft 210 kts 121°
2026-04-22 03:17 25.85343 -100.24366 3993 ft 212 kts 121°
2026-04-22 03:17 25.84574 -100.22957 3702 ft 211 kts 121°
2026-04-22 03:18 25.83833 -100.21598 3399 ft 203 kts 121°
2026-04-22 03:18 25.83129 -100.20305 3137 ft 188 kts 121°
2026-04-22 03:18 25.82481 -100.19120 2898 ft 170 kts 121°
2026-04-22 03:18 25.81893 -100.18053 2683 ft 154 kts 121°
2026-04-22 03:19 25.81352 -100.17070 2442 ft 146 kts 121°
2026-04-22 03:19 25.80833 -100.16131 2235 ft 142 kts 121°
2026-04-22 03:19 25.80314 -100.15200 2077 ft 141 kts 121°
2026-04-22 03:19 25.79808 -100.14285 1897 ft 140 kts 119°
2026-04-22 03:20 25.79310 -100.13348 1684 ft 139 kts 121°
2026-04-22 03:20 25.78812 -100.12441 1511 ft 139 kts 120°
2026-04-22 03:20 25.78305 -100.11520 1364 ft 139 kts 121°
2026-04-22 03:20 25.77854 -100.10698 1331 ft 105 kts 121°
2026-04-22 03:21 25.77563 -100.10166 1331 ft 56 kts 121°
2026-04-22 03:21 25.77424 -100.09913 1331 ft 33 kts 121°
2026-04-22 03:21 25.77333 -100.09745 1331 ft 18 kts 121°
2026-04-22 03:21 25.77270 -100.09688 1331 ft 13 kts 187°
2026-04-22 03:22 25.77190 -100.09736 1331 ft 14 kts 214°
2026-04-22 03:22 25.77148 -100.09799 1331 ft 10 kts 268°
2026-04-22 03:22 25.77181 -100.09876 1331 ft 12 kts 302°
2026-04-22 03:22 25.77229 -100.09961 1331 ft 14 kts 301°
2026-04-22 03:23 25.77284 -100.10062 1331 ft 16 kts 301°
2026-04-22 03:23 25.77346 -100.10175 1331 ft 18 kts 301°
2026-04-22 03:23 25.77408 -100.10288 1331 ft 17 kts 301°
2026-04-22 03:23 25.77473 -100.10406 1331 ft 19 kts 301°
2026-04-22 03:24 25.77545 -100.10539 1331 ft 21 kts 301°
2026-04-22 03:24 25.77625 -100.10683 1331 ft 23 kts 301°
2026-04-22 03:24 25.77713 -100.10843 1331 ft 22 kts 301°
2026-04-22 03:24 25.77795 -100.10994 1331 ft 17 kts 301°
2026-04-22 03:25 25.77824 -100.11047 1331 ft 8 kts 302°
2026-04-22 03:25 25.77812 -100.11098 1335 ft 9 kts 213°
2026-04-22 03:25 25.77756 -100.11135 1331 ft 8 kts 211°
2026-04-22 03:25 25.77727 -100.11192 1331 ft 9 kts 257°
2026-04-22 03:26 25.77694 -100.11248 1331 ft 7 kts 212°
2026-04-22 03:26 25.77680 -100.11260 1334 ft 3 kts 227°
2026-04-22 03:26 25.77682 -100.11292 1331 ft 5 kts 295°
2026-04-22 03:26 25.77704 -100.11331 1331 ft 5 kts 301°
2026-04-22 03:27 25.77724 -100.11350 1331 ft 4 kts
2026-04-22 03:27 25.77750 -100.11336 1331 ft 4 kts 31°
2026-04-22 03:27 25.77767 -100.11325 1331 ft 2 kts 31°
2026-04-22 03:27 25.77770 -100.11323 1331 ft 0 kts 31°